Preview of NWS' New Version of Forecast
This preview is not operational and should not be used for support decisions.

Regional Weather Roundup (RWR)

Issued by National Weather Service (NWS)

                            
000
ASUS46 KSEW 161710
RWRWA 

WASHINGTON REGIONAL WEATHER ROUNDUP
NATIONAL WEATHER SERVICE SEATTLE WA
1000 AM PDT TUE APR 16 2019

NOTE:"FAIR" INDICATES FEW OR NO CLOUDS BELOW 12,000 FEET WITH NO 
SIGNIFICANT WEATHER AND/OR OBSTRUCTIONS TO VISIBILITY.

WAZ507-509-555>559-161800-
SEATTLE, TACOMA, EVERETT, AND VICINITY
  
CITY           SKY/WX    TMP DP  RH WIND       PRES   REMARKS
EVERETT        CLOUDY    49  42  77 S7        29.99R                  
BOEING FIELD   CLOUDY    51  43  74 SW6       29.99R                  
RENTON         CLOUDY    52  43  71 S7        29.99R                  
SEATAC AIRPORT CLOUDY    49  42  77 SW6       29.98R                  
JBLM-MCCHORD   CLOUDY    50  50  99 CALM      29.99R                  
PUYALLUP       CLOUDY    52  46  82 CALM      29.98R                  
BREMERTON      PTSUNNY   49  43  80 SW10      29.98R                  
JBLM-FT LEWIS  PTSUNNY   50  50  99 SW5       29.98R                  
TACOMA NARROWS PTSUNNY   49  44  83 VRB3      29.99R                  
$$
 
WAZ001-503-506-510-514-515-161800-
NORTH INTERIOR
  
CITY           SKY/WX    TMP DP  RH WIND       PRES   REMARKS
BELLINGHAM     PTSUNNY   50  39  66 S8        29.96R                  
FRIDAY HARBOR  PTSUNNY   51  41  68 SE5       29.98R                  
EASTSOUND      CLOUDY    52  43  71 S8        29.96R                  
PORT ANGELES   PTSUNNY   50  37  61 CALM      29.97R                  
EDIZ HOOK      FAIR      48  41  79 NW3       29.97R                  
PORT TOWNSEND  FAIR      54  45  71 SE9G16    29.95R                  
NAS WHIDBEY    CLOUDY    54  42  64 S9        30.01                   
ARLINGTON      PTSUNNY   51  44  77 SE8       29.99R                  
BURLINGTON     SUNNY     55  43  62 SE8       29.98R                  
$$
 
WAZ020-022-039-040-504-511-512-161800-
SOUTHWEST INTERIOR
  
CITY           SKY/WX    TMP DP  RH WIND       PRES   REMARKS
SHELTON        PTSUNNY   50  43  77 SW5       29.96R                  
OLYMPIA        CLOUDY    49  44  83 SW9       29.98R                  
CHEHALIS       PTSUNNY   52  46  82 S10       29.99R                  
KELSO          CLOUDY    51  46  83 S5        30.02R                  
VANCOUVER      CLOUDY    50  46  86 VRB3      30.01R                  
SCAPPOOSE, OR  CLOUDY    50  45  83 VRB3      30.01R                  
PORTLAND, OR   PTSUNNY   51  46  83 E7        30.02R                  
$$
 
WAZ021-516-517-161800-
WASHINGTON COAST
  
CITY           SKY/WX    TMP DP  RH WIND       PRES   REMARKS
FORKS          CLOUDY    49  44  83 VRB3      29.96R                  
HOQUIAM        MOSUNNY   48  47  96 E5        29.98R                  
ASTORIA, OR    CLOUDY    51  46  83 E3        29.97R                  
$$
 
WAZ019-023-024-040-567>569-161800-
CASCADE MOUNTAINS AND COLUMBIA GORGE
  
CITY           SKY/WX    TMP DP  RH WIND       PRES   REMARKS
STAMPEDE PASS  NOT AVBL                                               
TROUTDALE, OR  CLOUDY    52  46  80 E5        30.01R                  
HOOD RIVER, OR PTSUNNY   54  43  66 MISG      29.99R                  
THE DALLES, OR SUNNY     52  43  71 CALM      29.99R                  
$$

WAZ026-027-041>044-520-521-161800-
EAST SLOPES
  
CITY           SKY/WX    TMP DP  RH WIND       PRES   REMARKS
OMAK           SUNNY     50  30  46 VRB5      29.92S                  
WENATCHEE      SUNNY     48  33  56 VRB5      29.92S                  
ELLENSBURG     SUNNY     51  34  52 VRB3      29.93S                  
YAKIMA         SUNNY     53  34  48 VRB3      29.95R                  
SUNNYSIDE ARPT MOSUNNY   53  39  60 CALM      29.96                   
YAKIMA TC      FAIR      52  30  41 CALM      29.92R                  
$$

WAZ028-034-035-161800-
COLUMBIA BASIN
  
CITY           SKY/WX    TMP DP  RH WIND       PRES   REMARKS
EPHRATA        SUNNY     52  34  50 S3        29.93R                  
MOSES LAKE     MOSUNNY   53  34  48 SE5       29.94R                  
PASCO          CLOUDY    57  42  57 SW13      29.98R                  
RICHLAND ARPT  CLOUDY    56  40  54 SW5       29.98R                  
HERMISTON, OR  CLOUDY    54  41  61 SW10      29.98R                  
$$

WAZ036>038-161800-
NORTHEAST WASHINGTON
  
CITY           SKY/WX    TMP DP  RH WIND       PRES   REMARKS
SPOKANE GEIGER MOSUNNY   46  29  51 CALM      29.91R                  
SPOKANE FELTS  MOSUNNY   46  32  58 CALM      29.92R                  
FAIRCHILD AFB  SUNNY     46  32  56 CALM      29.90R                  
COEURDALENE,ID SUNNY     45  32  60 NW3       29.91R                  
DEER PARK      MOSUNNY   45  31  58 S3        29.91R                  
$$

WAZ029>033-161800-
SOUTHEAST WASHINGTON
  
CITY           SKY/WX    TMP DP  RH WIND       PRES   REMARKS
PULLMAN        CLOUDY    44  38  79 W10G17    29.94R                  
LEWISTON, ID   CLOUDY    50  41  71 S6        29.94R                  
WALLA WALLA    LGT RAIN  47  41  80 S13       29.98R                  
PENDLETON, OR  CLOUDY    47  40  76 S7        29.98R                  
$$